Weather History for Cody, WY

Change the Weather History Date:

Monday, January 7, 2013

  Actual Average Record
Temperature  
Mean Temperature 35 °F -  
Max Temperature 42 °F 29 °F 59 °F (1948)
Min Temperature 28 °F 9 °F -30 °F (1937)
Degree Days  
Heating Degree Days 30    
Moisture  
Dew Point 17 °F    
Average Humidity 45    
Maximum Humidity 60    
Minimum Humidity 36    
Precipitation  
Precipitation 0.00 in - - ()
Sea Level Pressure  
Sea Level Pressure 29.82 in    
Wind  
Wind Speed 11 mph (West)    
Max Wind Speed 28 mph    
Max Gust Speed 46 mph    
Visibility 10 miles    
Events      
Averages and records for this station are not official NWS values.
T = Trace of Precipitation, MM = Missing Value Source: NWS Daily Summary

Daily Weather History Graph

Daily Weather History Graph

Search for Another Location

Airport:

Trip Planner

Search our weather history database for the weather conditions in past years. The results will help you decide how hot, cold, wet, or windy it might be!

Date:

Astronomy

Jan. 07, 2013 Rise Set
Actual Time 7:52 AM MST 4:53 PM MST
Civil Twilight 7:19 AM MST 5:26 PM MST
Nautical Twilight 6:42 AM MST 6:02 PM MST
Astronomical Twilight 6:07 AM MST 6:37 PM MST
Moon 3:17 AM MST (1/7) 1:08 PM MST (1/7)
Length of Visible Light 10h 07m
Length of Day
9h 01m
Waning Crescent, 22% of the Moon is Illuminated
Jan 7
Waning Crescent
Jan 11
New
Jan 18
First Quarter
Jan 26
Full
Feb 3
Last Quarter

Hourly Weather History & Observations

Time (MST) Temp. Windchill Dew Point Humidity Pressure Visibility Wind Dir Wind Speed Gust Speed Precip Events Conditions
12:15 AM 30.2 °F 26.7 °F 17.6 °F 60% 29.89 in 10.0 mi WSW 3.5 mph - N/A   Clear
12:35 AM 32.0 °F 24.8 °F 15.8 °F 51% 29.89 in 10.0 mi West 8.1 mph - N/A   Clear
12:55 AM 35.6 °F 26.6 °F 15.8 °F 44% 29.89 in 10.0 mi West 13.8 mph 20.7 mph N/A   Clear
1:15 AM 37.4 °F 28.5 °F 15.8 °F 41% 29.88 in 10.0 mi WSW 15.0 mph 24.2 mph N/A   Clear
1:35 AM 37.4 °F 30.8 °F 15.8 °F 41% 29.89 in 10.0 mi West 9.2 mph 24.2 mph N/A   Clear
1:55 AM 37.4 °F 32.1 °F 15.8 °F 41% 29.90 in 10.0 mi West 6.9 mph - N/A   Clear
2:15 AM 37.4 °F 30.3 °F 15.8 °F 41% 29.89 in 10.0 mi West 10.4 mph 20.7 mph N/A   Clear
2:35 AM 37.4 °F 29.3 °F 15.8 °F 41% 29.90 in 10.0 mi West 12.7 mph 18.4 mph N/A   Clear
2:55 AM 32.0 °F 25.6 °F 12.2 °F 44% 29.91 in 10.0 mi NNW 6.9 mph - N/A   Clear
3:15 AM 28.4 °F - 12.2 °F 51% 29.90 in 10.0 mi Calm Calm - N/A   Clear
3:35 AM 28.4 °F - 12.2 °F 51% 29.90 in 10.0 mi Calm Calm - N/A   Clear
3:55 AM 28.4 °F 22.2 °F 14.0 °F 55% 29.91 in 10.0 mi SW 5.8 mph - N/A   Clear
4:15 AM 28.4 °F 23.3 °F 14.0 °F 55% 29.91 in 10.0 mi NW 4.6 mph - N/A   Clear
4:35 AM 28.4 °F 23.3 °F 12.2 °F 51% 29.91 in 10.0 mi WSW 4.6 mph - N/A   Clear
5:15 AM 30.2 °F 24.3 °F 15.8 °F 55% 29.90 in 10.0 mi West 5.8 mph - N/A   Clear
5:35 AM 35.6 °F 27.5 °F 15.8 °F 44% 29.90 in 10.0 mi West 11.5 mph 18.4 mph N/A   Clear
5:55 AM 33.8 °F 27.0 °F 15.8 °F 48% 29.92 in 10.0 mi WNW 8.1 mph 19.6 mph N/A   Clear
6:15 AM 33.8 °F 26.4 °F 15.8 °F 48% 29.91 in 10.0 mi West 9.2 mph 17.3 mph N/A   Clear
6:35 AM 37.4 °F 30.8 °F 15.8 °F 41% 29.90 in 10.0 mi West 9.2 mph 23.0 mph N/A   Partly Cloudy
6:55 AM 35.6 °F 28.0 °F 15.8 °F 44% 29.90 in 10.0 mi WSW 10.4 mph 20.7 mph N/A   Clear
7:15 AM 35.6 °F 28.0 °F 14.0 °F 41% 29.90 in 10.0 mi SW 10.4 mph 16.1 mph N/A   Clear
8:15 AM 37.4 °F 30.8 °F 14.0 °F 38% 29.90 in 10.0 mi West 9.2 mph 19.6 mph N/A   Clear
8:35 AM 37.4 °F 28.9 °F 14.0 °F 38% 29.90 in 10.0 mi West 13.8 mph 20.7 mph N/A   Clear
8:55 AM 37.4 °F 30.8 °F 15.8 °F 41% 29.90 in 10.0 mi WSW 9.2 mph 18.4 mph N/A   Clear
9:15 AM 37.4 °F 31.4 °F 15.8 °F 41% 29.91 in 10.0 mi WNW 8.1 mph 17.3 mph N/A   Clear
9:35 AM 37.4 °F - 15.8 °F 41% 29.90 in 10.0 mi Calm Calm - N/A   Clear
9:55 AM 37.4 °F 32.1 °F 15.8 °F 41% 29.89 in 10.0 mi West 6.9 mph 20.7 mph N/A   Clear
10:15 AM 37.4 °F 29.8 °F 15.8 °F 41% 29.89 in 10.0 mi West 11.5 mph 20.7 mph N/A   Clear
10:35 AM 37.4 °F 32.8 °F 15.8 °F 41% 29.89 in 10.0 mi West 5.8 mph - N/A   Clear
10:55 AM 39.2 °F 33.6 °F 17.6 °F 42% 29.88 in 10.0 mi West 8.1 mph 20.7 mph N/A   Clear
11:15 AM 39.2 °F 31.2 °F 17.6 °F 42% 29.87 in 10.0 mi WSW 13.8 mph 21.9 mph N/A   Clear
11:35 AM 39.2 °F 31.2 °F 17.6 °F 42% 29.86 in 10.0 mi West 13.8 mph 24.2 mph N/A   Clear
12:15 PM 42.8 °F 36.6 °F 17.6 °F 36% 29.83 in 10.0 mi WSW 11.5 mph 16.1 mph N/A   Clear
12:35 PM 39.2 °F 35.9 °F 17.6 °F 42% 29.81 in 10.0 mi SSE 4.6 mph - N/A   Clear
12:55 PM 42.8 °F 38.0 °F 17.6 °F 36% 29.79 in 10.0 mi SW 8.1 mph 18.4 mph N/A   Partly Cloudy
1:15 PM 42.8 °F 36.2 °F 17.6 °F 36% 29.78 in 10.0 mi SW 12.7 mph 16.1 mph N/A   Mostly Cloudy
1:55 PM 42.8 °F 35.4 °F 17.6 °F 36% 29.77 in 10.0 mi WSW 15.0 mph 24.2 mph N/A   Mostly Cloudy
2:15 PM 42.8 °F 34.5 °F 17.6 °F 36% 29.77 in 10.0 mi WSW 18.4 mph 28.8 mph N/A   Mostly Cloudy
2:35 PM 41.0 °F 32.5 °F 19.4 °F 42% 29.76 in 10.0 mi WSW 17.3 mph 21.9 mph N/A   Mostly Cloudy
2:55 PM 41.0 °F 32.5 °F 19.4 °F 42% 29.76 in 10.0 mi WSW 17.3 mph 27.6 mph N/A   Mostly Cloudy
3:15 PM 41.0 °F 31.9 °F 19.4 °F 42% 29.76 in 10.0 mi West 19.6 mph 27.6 mph N/A   Mostly Cloudy
3:35 PM 39.2 °F 30.5 °F 19.4 °F 45% 29.75 in 10.0 mi West 16.1 mph 26.5 mph N/A   Partly Cloudy
4:15 PM 39.2 °F 30.5 °F 19.4 °F 45% 29.75 in 10.0 mi WNW 16.1 mph 29.9 mph N/A   Overcast
4:35 PM 39.2 °F 30.8 °F 19.4 °F 45% 29.74 in 10.0 mi West 15.0 mph 23.0 mph N/A   Overcast
4:55 PM 39.2 °F 30.5 °F 19.4 °F 45% 29.74 in 10.0 mi West 16.1 mph 26.5 mph N/A   Overcast
5:15 PM 37.4 °F 28.9 °F 19.4 °F 48% 29.74 in 10.0 mi West 13.8 mph 25.3 mph N/A   Mostly Cloudy
5:35 PM 37.4 °F 27.2 °F 19.4 °F 48% 29.73 in 10.0 mi West 19.6 mph 35.7 mph N/A   Scattered Clouds
5:55 PM 37.4 °F 27.5 °F 19.4 °F 48% 29.74 in 10.0 mi West 18.4 mph 35.7 mph N/A   Partly Cloudy
6:15 PM 37.4 °F 27.5 °F 19.4 °F 48% 29.74 in 10.0 mi West 18.4 mph 32.2 mph N/A   Clear
6:35 PM 35.6 °F 25.2 °F 19.4 °F 52% 29.74 in 10.0 mi WNW 18.4 mph 33.4 mph N/A   Clear
7:15 PM 35.6 °F 24.2 °F 21.2 °F 56% 29.72 in 10.0 mi WSW 21.9 mph 36.8 mph N/A   Clear
7:35 PM 35.6 °F 24.0 °F 19.4 °F 52% 29.73 in 10.0 mi West 23.0 mph 36.8 mph N/A   Clear
7:55 PM 35.6 °F 26.2 °F 19.4 °F 52% 29.73 in 10.0 mi WSW 15.0 mph 27.6 mph N/A   Partly Cloudy
8:35 PM 37.4 °F 27.8 °F 19.4 °F 48% 29.72 in 10.0 mi West 17.3 mph 32.2 mph N/A   Partly Cloudy
8:55 PM 37.4 °F 26.6 °F 19.4 °F 48% 29.71 in 10.0 mi West 21.9 mph 34.5 mph N/A   Clear
9:15 PM 37.4 °F 25.4 °F 19.4 °F 48% 29.70 in 10.0 mi West 27.6 mph 41.4 mph N/A   Clear
9:35 PM 37.4 °F 25.9 °F 19.4 °F 48% 29.71 in 10.0 mi West 25.3 mph 42.6 mph N/A   Clear
9:55 PM 37.4 °F 26.4 °F 19.4 °F 48% 29.71 in 10.0 mi West 23.0 mph 46.0 mph N/A   Clear
10:15 PM 37.4 °F 25.6 °F 19.4 °F 48% 29.70 in 10.0 mi West 26.5 mph 36.8 mph N/A   Clear
10:35 PM 37.4 °F 25.4 °F 17.6 °F 45% 29.71 in 10.0 mi WSW 27.6 mph 38.0 mph N/A   Clear
10:55 PM 37.4 °F 26.1 °F 17.6 °F 45% 29.71 in 10.0 mi WSW 24.2 mph 38.0 mph N/A   Clear
11:15 PM 37.4 °F 27.5 °F 17.6 °F 45% 29.70 in 10.0 mi West 18.4 mph 29.9 mph N/A   Clear
11:35 PM 37.4 °F 29.3 °F 17.6 °F 45% 29.68 in 10.0 mi West 12.7 mph 31.1 mph N/A   Clear
11:55 PM 37.4 °F 28.5 °F 17.6 °F 45% 29.69 in 10.0 mi WSW 15.0 mph 33.4 mph N/A   Clear